Location: Boiro
(42.6475°N, 8.8834°W)
Time: 03:28:13
(UTC+01:00)

X-37B - Pass Details

Date: 24 October 2021
Orbit: 330 x 341 km, 45.0° (Epoch: 20 November)

Event Time Altitude Azimuth Distance (km) Brightness Sun altitude
Rises 21:11:32 0° 286° (WNW) 2,127 5.8 -17.6°
Reaches altitude 10° 21:13:33 10° 283° (WNW) 1,285 4.4 -18.0°
Maximum altitude 21:16:24 58° 203° (SSW) 403 0.7 -18.5°
Enters shadow 21:16:30 57° 192° (SSW) 405 0.6 -18.5°
